Hourly Data Report for October 14, 2013

All times are specified in Local Standard Time (LST). Add 1 hour to adjust for Daylight Saving Time where and when it is observed.

GRISE FIORD CLIMATE
NUNAVUT

76°25'22.040" N
82°54'08.020" W
44.50 m
2402351
71971
NGC

Download Data

Hourly Data (October 2013)
Hourly Data Report for October 14, 2013
Temp Definition
°C
Dew Point Temp Definition
°C
Rel Hum Definition
%
Wind Dir Definition
10's deg

Wind Spd Definition
km/h
Visibility Definition
km
Stn Press Definition
kPa
Hmdx Definition


Wind Chill Definition


Weather Definition


TIME
00:00 -4.5 -9.3 69 7 6   101.49   -7 LegendNANA
01:00 -4.7 -10.0 66 9 6   101.48   -7 LegendNANA
02:00 -5.3 -10.7 66 7 17   101.46   -11 LegendNANA
03:00 -5.4 -11.4 63 6 17   101.45   -11 LegendNANA
04:00 -6.2 -11.5 66 11 2   101.45   -7 LegendNANA
05:00 -7.1 -11.3 72 10 6   101.44   -10 LegendNANA
06:00 -7.3 -11.8 70 12 4   101.44   -9 LegendNANA
07:00 -8.4 -12.4 73 12 6   101.41   -12 LegendNANA
08:00 -7.7 -12.7 67 9 7   101.41   -11 LegendNANA
09:00 -8.3 -12.2 73 14 4   101.40   -10 LegendNANA
10:00 -9.0 -12.2 78 4 2   101.40   -10 LegendNANA
11:00 -8.6 -12.2 75 11 6   101.38   -12 LegendNANA
12:00 -7.8 -12.6 68 12 7   101.36   -11 LegendNANA
13:00 -6.5 -13.6 57 17 4   101.37   -8 LegendNANA
14:00 -7.5 -13.6 62 13 9   101.40   -12 LegendNANA
15:00 -8.4 -13.4 67 12 6   101.42   -12 LegendNANA
16:00 -8.8 -14.0 66 11 4   101.46   -11 LegendNANA
17:00 -9.0 -13.5 70 14 4   101.46   -11 LegendNANA
18:00 -9.2 -14.2 67 12 6   101.48   -13 LegendNANA
19:00 -10.0 -13.6 75 16 4   101.48   -12 LegendNANA
20:00 -10.9 -14.1 77 2 2   101.48   -12 LegendNANA
21:00 -10.5 -13.7 77 2 7   101.47   -15 LegendNANA
22:00 -10.3 -13.0 81 4 9   101.47   -15 LegendNANA
23:00 -10.8 -14.3 75 2 6   101.43   -14 LegendNANA

Notes on Data Quality.

Legend

  • E = Estimated
  • M = Missing
  • NA = Not Available
  • ‡ = Partner data that is not subject to review by the National Climate Archives
Date modified: